When you browse on this site, cookies collect data to enhance your experience and personalize the content and advertising you see.
Visit our Privacy Policy to learn more. By continuing to use the site, you agree to this use of cookies and data.
  • en France
  • Liste des pays
  • À 7 jours
  • Température de l'eau
  • Carte satellitaire
  • Carte météo
  • Widgets météo
  • user-avatar
    Se connecter

    Météo par heure à Mayrhofen

    Ce jour, 26 Avril, Vendredi

    Heure Température Précipitation Vent Pression Humidité
    00:00 +4°C° 0 mm 4 m/s 614 mmHg 92%
    01:00 +3°C° 0 mm 4 m/s 614 mmHg 92%
    02:00 +3°C° 0 mm 4 m/s 614 mmHg 92%
    03:00 +3°C° 0 mm 4 m/s 614 mmHg 92%
    04:00 +3°C° 0 mm 4 m/s 614 mmHg 92%
    05:00 +4°C° 0 mm 4 m/s 614 mmHg 89%
    06:00 +4°C° 0 mm 4 m/s 614 mmHg 87%
    07:00 +5°C° 0 mm 5 m/s 614 mmHg 84%
    08:00 +6°C° 0 mm 5 m/s 614 mmHg 77%
    09:00 +8°C° 0 mm 4 m/s 615 mmHg 70%
    10:00 +10°C° 0 mm 4 m/s 615 mmHg 63%
    11:00 +10°C° 0.3 mm 4 m/s 616 mmHg 64%
    12:00 +11°C° 0.3 mm 4 m/s 616 mmHg 64%
    13:00 +11°C° 0.3 mm 3 m/s 617 mmHg 65%
    14:00 +9°C° 1.3 mm 3 m/s 616 mmHg 73%
    15:00 +6°C° 1.3 mm 2 m/s 615 mmHg 82%
    16:00 +4°C° 1.3 mm 2 m/s 615 mmHg 91%
    17:00 +3°C° 0.6 mm 2 m/s 615 mmHg 92%
    18:00 +2°C° 0.6 mm 2 m/s 615 mmHg 92%
    19:00 +1°C° 0.6 mm 2 m/s 615 mmHg 93%
    20:00 -1°C° 0.1 mm 2 m/s 615 mmHg 93%
    21:00 -1°C° 0.1 mm 2 m/s 615 mmHg 94%
    22:00 -2°C° 0.1 mm 2 m/s 615 mmHg 94%
    23:00 -2°C° 0 mm 2 m/s 615 mmHg 94%

    Demain, 27 Avril, Samedi

    Heure Température Précipitation Vent Pression Humidité
    00:00 -3°C° 0 mm 2 m/s 615 mmHg 94%
    01:00 -3°C° 0 mm 2 m/s 615 mmHg 94%
    02:00 -3°C° 0.2 mm 2 m/s 615 mmHg 93%
    03:00 -3°C° 0.2 mm 2 m/s 615 mmHg 93%
    04:00 -3°C° 0.2 mm 2 m/s 615 mmHg 93%
    05:00 -2°C° 0.2 mm 2 m/s 615 mmHg 91%
    06:00 -2°C° 0.2 mm 2 m/s 616 mmHg 89%
    07:00 -2°C° 0.2 mm 2 m/s 616 mmHg 87%
    08:00 +1°C° 0.1 mm 2 m/s 616 mmHg 80%
    09:00 +2°C° 0.1 mm 2 m/s 617 mmHg 73%
    10:00 +4°C° 0.1 mm 2 m/s 617 mmHg 66%
    11:00 +5°C° 0 mm 2 m/s 617 mmHg 62%
    12:00 +6°C° 0 mm 2 m/s 618 mmHg 57%
    13:00 +7°C° 0 mm 2 m/s 618 mmHg 53%
    14:00 +7°C° 0 mm 2 m/s 618 mmHg 54%
    15:00 +6°C° 0 mm 2 m/s 617 mmHg 55%
    16:00 +6°C° 0 mm 2 m/s 617 mmHg 56%
    17:00 +5°C° 0.2 mm 2 m/s 617 mmHg 65%
    18:00 +4°C° 0.2 mm 2 m/s 616 mmHg 75%
    19:00 +2°C° 0.2 mm 2 m/s 616 mmHg 85%
    20:00 +2°C° 0.4 mm 2 m/s 617 mmHg 87%
    21:00 +1°C° 0.4 mm 2 m/s 617 mmHg 90%
    22:00 +2°C° 0.4 mm 1 m/s 617 mmHg 93%
    23:00 +2°C° 0.5 mm 1 m/s 617 mmHg 93%

    Après-demain, 28 Avril, Dimanche

    Heure Température Précipitation Vent Pression Humidité
    00:00 +1°C° 0.5 mm 1 m/s 617 mmHg 94%
    01:00 +1°C° 0.5 mm 1 m/s 617 mmHg 95%
    02:00 -1°C° 0.7 mm 2 m/s 617 mmHg 95%
    03:00 -2°C° 0.7 mm 2 m/s 616 mmHg 95%
    04:00 -2°C° 0.7 mm 2 m/s 616 mmHg 94%
    05:00 -2°C° 1.2 mm 2 m/s 616 mmHg 94%
    06:00 -2°C° 1.2 mm 2 m/s 615 mmHg 93%
    07:00 -3°C° 1.2 mm 2 m/s 615 mmHg 93%
    08:00 -2°C° 0.8 mm 2 m/s 615 mmHg 91%
    09:00 -2°C° 0.8 mm 3 m/s 616 mmHg 90%
    10:00 -2°C° 0.8 mm 3 m/s 616 mmHg 88%
    11:00 -1°C° 0.5 mm 3 m/s 616 mmHg 88%
    12:00 -1°C° 0.5 mm 3 m/s 616 mmHg 89%
    13:00 -1°C° 0.5 mm 3 m/s 616 mmHg 89%
    14:00 -1°C° 0.4 mm 3 m/s 616 mmHg 88%
    15:00 -1°C° 0.4 mm 3 m/s 615 mmHg 88%
    16:00 -1°C° 0.4 mm 3 m/s 615 mmHg 87%
    17:00 -2°C° 0.2 mm 3 m/s 615 mmHg 89%
    18:00 -2°C° 0.2 mm 2 m/s 615 mmHg 91%
    19:00 -3°C° 0.2 mm 2 m/s 615 mmHg 92%
    20:00 -4°C° 0.1 mm 2 m/s 615 mmHg 93%
    21:00 -2°C° 0.1 mm 1 m/s 615 mmHg 94%
    22:00 -3°C° 0.1 mm 1 m/s 615 mmHg 94%
    23:00 -3°C° 0 mm 1 m/s 615 mmHg 93%

    29 Avril, Lundi

    Heure Température Précipitation Vent Pression Humidité
    00:00 -4°C° 0 mm 1 m/s 614 mmHg 92%
    01:00 -4°C° 0 mm 1 m/s 614 mmHg 91%
    02:00 -4°C° 0.1 mm 1 m/s 614 mmHg 90%
    03:00 -4°C° 0.1 mm 1 m/s 614 mmHg 89%
    04:00 -4°C° 0.1 mm 1 m/s 614 mmHg 89%
    05:00 -3°C° 0 mm 1 m/s 614 mmHg 87%
    06:00 -3°C° 0 mm 1 m/s 614 mmHg 86%
    07:00 -2°C° 0 mm 1 m/s 615 mmHg 84%
    08:00 -1°C° 0 mm 1 m/s 615 mmHg 81%
    09:00 -1°C° 0 mm 2 m/s 616 mmHg 79%
    10:00 +1°C° 0 mm 2 m/s 616 mmHg 76%
    11:00 +1°C° 0 mm 2 m/s 616 mmHg 76%
    12:00 +2°C° 0 mm 2 m/s 616 mmHg 75%
    13:00 +3°C° 0 mm 2 m/s 616 mmHg 75%
    14:00 +2°C° 0.1 mm 3 m/s 616 mmHg 75%
    15:00 +2°C° 0.1 mm 3 m/s 616 mmHg 75%
    16:00 +2°C° 0.1 mm 3 m/s 615 mmHg 75%
    17:00 +2°C° 0 mm 2 m/s 615 mmHg 80%
    18:00 -1°C° 0 mm 2 m/s 615 mmHg 86%
    19:00 -2°C° 0 mm 2 m/s 615 mmHg 92%
    20:00 -3°C° 0 mm 2 m/s 615 mmHg 93%
    21:00 -2°C° 0 mm 1 m/s 615 mmHg 94%
    22:00 -2°C° 0 mm 1 m/s 615 mmHg 94%
    23:00 -3°C° 0 mm 1 m/s 615 mmHg 92%

    30 Avril, Mardi

    Heure Température Précipitation Vent Pression Humidité
    00:00 -3°C° 0 mm 1 m/s 614 mmHg 90%
    01:00 -4°C° 0 mm 1 m/s 614 mmHg 88%
    02:00 -4°C° 0 mm 1 m/s 614 mmHg 86%
    03:00 -4°C° 0 mm 1 m/s 614 mmHg 83%
    04:00 -6°C° 0 mm 1 m/s 614 mmHg 81%
    05:00 -3°C° 0 mm 1 m/s 614 mmHg 78%
    06:00 -2°C° 0 mm 1 m/s 615 mmHg 75%
    07:00 0°C° 0 mm 1 m/s 615 mmHg 72%
    08:00 +1°C° 0 mm 1 m/s 616 mmHg 69%
    09:00 +2°C° 0 mm 2 m/s 616 mmHg 66%
    10:00 +3°C° 0 mm 2 m/s 616 mmHg 63%
    11:00 +4°C° 0 mm 2 m/s 616 mmHg 62%
    12:00 +5°C° 0 mm 2 m/s 616 mmHg 62%
    13:00 +5°C° 0 mm 2 m/s 616 mmHg 61%
    14:00 +5°C° 0.1 mm 2 m/s 615 mmHg 62%
    15:00 +5°C° 0.1 mm 2 m/s 615 mmHg 62%
    16:00 +4°C° 0.1 mm 3 m/s 615 mmHg 62%
    17:00 +4°C° 0.1 mm 2 m/s 615 mmHg 69%
    18:00 +2°C° 0.1 mm 2 m/s 614 mmHg 77%
    19:00 +1°C° 0.1 mm 2 m/s 614 mmHg 84%
    20:00 +1°C° 0 mm 1 m/s 614 mmHg 87%
    21:00 0°C° 0 mm 1 m/s 614 mmHg 90%
    22:00 -1°C° 0 mm 1 m/s 614 mmHg 93%
    23:00 -1°C° 0 mm 1 m/s 614 mmHg 93%

    1 Mai, Mercredi

    Heure Température Précipitation Vent Pression Humidité
    00:00 -2°C° 0 mm 1 m/s 614 mmHg 92%
    01:00 -2°C° 0 mm 1 m/s 614 mmHg 92%
    02:00 -2°C° 0 mm 1 m/s 613 mmHg 90%
    03:00 -2°C° 0 mm 1 m/s 613 mmHg 88%
    04:00 -2°C° 0 mm 1 m/s 613 mmHg 86%
    05:00 0°C° 0 mm 1 m/s 614 mmHg 80%
    06:00 +1°C° 0 mm 1 m/s 614 mmHg 73%
    07:00 +3°C° 0 mm 1 m/s 615 mmHg 67%
    08:00 +5°C° 0 mm 1 m/s 615 mmHg 61%
    09:00 +7°C° 0 mm 1 m/s 616 mmHg 56%
    10:00 +9°C° 0 mm 1 m/s 616 mmHg 50%
    11:00 +10°C° 0 mm 1 m/s 616 mmHg 48%
    12:00 +11°C° 0 mm 1 m/s 616 mmHg 46%
    13:00 +12°C° 0 mm 1 m/s 616 mmHg 43%
    14:00 +11°C° 0 mm 1 m/s 616 mmHg 45%
    15:00 +11°C° 0 mm 1 m/s 616 mmHg 46%
    16:00 +11°C° 0 mm 1 m/s 615 mmHg 48%
    17:00 +9°C° 0 mm 1 m/s 615 mmHg 55%
    18:00 +6°C° 0 mm 0 m/s 614 mmHg 63%
    19:00 +4°C° 0 mm 0 m/s 613 mmHg 71%
    20:00 +4°C° 0 mm 1 m/s 613 mmHg 74%
    21:00 +3°C° 0 mm 1 m/s 613 mmHg 77%
    22:00 +1°C° 0 mm 2 m/s 613 mmHg 79%
    23:00 +1°C° 0 mm 2 m/s 613 mmHg 82%
    Voir plus